Wind_Speed
33 32 32 33 33 33 33 32 32 32 32 32 32 33 33 32 32 32 31 31 31 31 30 30 30 30 30 31 31 32 32 32 33 32 33 33 33 33 34 35 36 36 36
34 34 34 34 35 34 34 33 34 33 33 33 33 33 33 34 34 34 33 33 33 33 32 32 32 32 32 32 32 33 33 34 34 34 34 34 34 35 36 36 37 37 38
36 36 36 35 35 34 34 35 36 35 35 34 34 34 33 33 33 34 34 34 34 34 34 33 33 33 33 34 34 34 34 35 35 35 35 36 36 36 37 37 38 39 39
37 37 37 36 36 35 36 36 36 36 36 35 35 35 35 35 35 35 35 36 35 35 34 34 34 35 35 35 36 36 36 36 37 37 38 38 38 38 39 39 39 40 40
38 38 37 37 37 36 37 37 37 37 37 37 37 37 37 36 36 36 36 36 36 36 36 36 37 37 37 37 38 38 38 38 38 39 40 40 40 41 40 40 40 40 40
39 38 39 38 38 37 37 37 38 38 38 39 38 38 38 38 37 36 36 36 36 37 37 37 38 38 38 39 39 39 39 40 40 40 41 41 42 42 41 40 40 41 41
41 41 41 40 38 39 38 39 40 40 39 39 39 38 38 38 38 38 38 37 38 38 39 38 39 39 39 40 40 40 40 41 41 41 42 42 42 42 42 41 42 42 42
42 42 42 40 40 40 39 39 40 40 40 40 40 39 39 39 38 39 39 39 39 40 40 40 40 40 40 40 40 40 41 41 41 42 42 42 42 43 43 42 42 42 42
44 43 42 41 41 42 41 40 40 40 40 40 40 40 40 40 40 40 41 41 41 41 41 41 41 41 41 42 41 41 41 41 42 42 42 43 43 44 43 43 43 43 43
44 44 42 42 42 42 42 42 42 42 42 41 41 42 42 42 41 40 41 41 41 41 41 42 42 43 43 43 42 42 42 42 42 42 43 43 43 43 44 44 44 44 44
45 44 43 42 42 42 42 42 43 43 43 43 43 43 44 44 43 42 42 42 42 42 43 43 43 43 43 42 42 42 42 43 43 43 43 43 43 43 44 44 44 44 44
46 44 43 43 44 44 44 44 43 43 43 43 43 42 43 43 44 45 44 44 44 44 44 44 44 43 42 42 43 43 43 43 43 43 42 43 43 43 43 45 44 45 45
46 44 44 44 44 44 44 44 44 44 44 44 44 43 43 44 45 45 45 45 45 44 44 44 44 44 43 43 43 43 43 43 43 43 43 43 43 43 43 44 45 45 45
47 46 46 46 45 45 45 45 45 45 45 45 45 45 44 44 46 46 46 45 45 45 44 44 43 42 42 42 42 43 43 44 44 43 43 43 43 43 43 44 45 45 44
48 47 47 46 45 45 45 45 45 45 45 45 46 45 45 45 46 45 45 45 45 45 44 43 42 41 41 41 41 41 42 43 42 42 42 43 43 43 44 44 44 44 44
46 46 47 47 47 47 46 45 44 44 45 45 46 46 46 46 45 44 43 43 43 43 43 42 42 41 40 40 40 41 41 41 41 42 43 44 43 43 43 43 42 43 43
46 46 46 46 47 47 46 46 45 45 46 46 47 47 46 44 44 43 43 43 42 42 41 40 40 40 40 40 40 40 42 41 41 42 43 43 42 42 42 42 42 42 42
45 45 45 45 46 45 45 45 44 44 45 45 44 43 43 43 43 42 42 43 42 40 39 38 38 38 39 40 40 40 40 40 40 41 41 42 42 41 41 41 41 41 41
44 44 44 43 43 44 44 44 43 42 42 41 41 41 41 41 41 41 41 41 41 40 39 38 38 38 39 39 38 38 38 38 39 39 40 40 40 40 39 40 40 40 40
43 43 43 42 41 42 42 42 41 41 40 39 39 40 39 40 40 40 40 40 40 39 38 38 38 37 37 37 37 36 36 37 38 38 37 37 37 37 37 37 37 38 38
42 42 42 42 41 41 41 40 40 39 38 38 38 38 38 38 38 38 38 38 38 38 37 37 36 35 35 35 36 36 35 35 36 36 36 35 35 35 34 35 35 35 35
40 40 41 40 39 39 39 38 39 39 39 38 37 37 37 36 37 36 36 36 36 35 35 34 34 34 34 34 35 35 35 34 33 34 34 33 33 32 32 32 32 32 32
37 38 38 38 38 38 37 36 37 38 38 36 36 35 36 36 35 35 34 34 34 34 34 34 33 33 33 33 34 35 35 33 32 32 31 30 31 31 31 30 29 29 29
34 35 36 37 37 37 38 37 37 36 36 35 35 34 34 35 35 34 33 33 33 33 34 34 34 33 33 32 33 34 32 31 30 29 29 29 29 28 27 27 27 27 27
33 34 34 34 35 36 37 37 37 36 34 33 33 32 33 33 34 35 34 33 33 33 33 33 32 32 32 32 32 32 30 28 27 27 27 26 26 25 26 25 25 25 25
31 32 31 31 32 33 34 34 34 34 32 32 31 32 32 32 33 34 34 33 33 33 31 30 30 30 30 30 31 30 28 28 27 25 24 24 24 25 25 24 24 24 24
Wind_Direction
262 262 263 264 265 265 266 267 268 269 270 271 273 274 275 276 277 279 281 283 284 287 288 288 289 291 292 294 296 297 298 300 300 299 300 299 299 300 300 300 300 299 299
262 262 264 264 264 265 266 266 267 269 271 273 274 275 275 275 276 278 279 282 283 285 287 286 288 289 291 292 294 296 297 297 298 298 299 299 298 299 300 300 299 299 298
264 264 264 264 265 265 266 267 267 269 271 272 273 275 275 275 276 278 280 282 283 285 286 286 287 289 290 292 292 294 295 296 296 297 298 299 298 299 300 300 299 298 297
263 264 264 265 264 264 266 267 269 269 269 271 272 273 275 276 277 278 280 282 283 284 285 285 286 287 288 290 292 293 294 295 295 295 296 297 298 298 299 299 299 298 298
263 263 264 265 264 264 266 268 268 269 269 270 271 273 274 276 277 278 280 281 282 283 284 284 285 287 287 288 290 291 293 294 294 295 295 296 296 297 297 297 298 298 298
263 263 264 264 264 265 267 268 269 270 271 271 272 273 275 276 278 280 280 281 282 283 284 285 286 288 288 289 290 290 291 293 293 294 296 296 296 297 296 296 297 298 298
264 264 264 264 264 264 266 268 269 270 271 272 272 273 275 276 278 279 280 281 282 283 284 285 286 288 289 289 290 290 290 291 293 294 295 295 296 297 297 296 296 297 297
264 264 265 263 264 266 266 268 270 270 270 272 272 272 273 275 276 278 280 281 281 283 284 285 286 286 288 289 289 289 289 289 291 293 294 294 295 296 296 296 297 298 298
264 264 266 265 265 265 265 268 270 271 270 272 273 274 274 274 275 277 280 281 281 282 283 284 284 286 287 288 289 289 289 289 290 292 293 293 294 295 296 296 296 297 298
265 265 266 266 266 266 266 268 270 271 270 272 275 276 276 277 277 277 279 281 282 282 283 284 284 285 287 288 288 288 289 289 290 291 292 293 294 296 295 297 297 297 297
265 264 265 266 266 267 267 269 270 271 273 274 275 276 277 278 280 280 280 281 282 283 284 284 285 285 286 287 287 289 290 289 290 290 291 292 294 294 295 295 296 297 297
264 264 264 266 266 266 266 268 269 271 273 274 275 275 276 278 281 283 282 282 282 282 283 284 284 286 286 287 287 289 290 290 290 289 291 292 293 293 294 295 295 296 296
262 262 264 266 267 266 266 268 269 271 272 272 274 275 277 278 280 282 282 282 282 282 282 283 283 284 284 285 287 289 290 291 290 289 290 291 293 293 294 295 295 294 295
261 263 264 266 266 266 266 268 270 271 271 272 273 275 277 279 280 281 282 281 281 281 282 281 282 282 283 284 286 287 288 290 289 288 290 291 293 293 294 295 295 294 294
262 264 266 266 266 267 267 268 270 271 271 273 274 275 277 279 280 281 281 281 281 281 280 281 281 282 283 285 285 288 289 289 289 289 290 292 293 293 294 295 295 295 295
263 265 266 265 266 267 268 269 269 271 271 273 274 274 276 277 279 280 280 281 281 280 281 281 280 281 284 286 285 286 289 290 290 290 291 292 292 293 294 295 295 295 296
263 264 266 266 267 268 269 270 270 272 272 273 274 274 274 275 277 278 278 279 279 280 281 281 281 282 284 286 286 286 287 288 289 290 291 292 292 294 294 296 295 295 295
263 264 265 267 267 267 268 270 271 273 273 273 273 273 272 273 274 275 276 277 277 278 279 279 281 282 283 286 287 288 288 287 288 290 292 293 293 294 295 295 295 295 295
265 264 264 265 266 268 268 269 272 273 273 274 273 272 272 272 271 272 273 275 275 276 278 278 280 282 284 285 286 288 289 288 289 292 293 293 294 295 296 296 296 295 295
264 264 264 265 266 267 268 268 271 273 274 274 273 272 271 270 269 271 272 273 274 275 277 279 281 282 284 286 286 288 288 289 291 293 294 296 297 297 297 297 297 297 297
263 263 264 265 266 266 267 267 270 271 272 273 272 271 269 269 268 269 271 272 272 274 277 278 280 282 284 286 287 288 288 289 292 294 295 296 297 297 297 298 299 300 299
262 262 263 265 266 267 267 267 268 270 270 271 272 270 268 268 268 269 270 270 271 274 275 278 280 282 284 286 287 287 288 290 292 294 296 296 297 297 299 299 301 302 302
264 263 264 265 265 265 266 265 267 267 268 269 270 270 268 268 269 269 269 269 271 273 275 278 280 282 283 285 286 287 289 291 293 294 296 297 299 299 299 300 302 304 303
267 267 265 265 266 266 266 265 266 268 268 269 270 271 270 268 267 268 269 269 270 272 275 277 279 281 283 284 285 287 288 291 292 294 297 299 300 300 301 302 304 305 305
268 268 267 266 266 266 267 267 267 267 266 268 269 270 271 269 267 267 268 269 271 273 275 277 280 281 283 284 285 287 287 287 289 293 296 299 301 301 303 304 306 308 308
269 268 266 267 268 268 268 267 267 265 264 266 268 268 269 269 269 268 269 270 271 272 273 274 278 279 281 283 285 285 284 285 289 293 295 297 299 301 303 305 307 308 309
Height
5799 5800 5800 5801 5802 5802 5803 5804 5805 5805 5805 5805 5805 5805 5805 5804 5804 5804 5803 5802 5801 5799 5798 5796 5795 5793 5791 5789 5787 5785 5782 5780 5778 5775 5772 5769 5766 5763 5760 5757 5753 5750 5746
5791 5792 5793 5793 5794 5795 5796 5796 5797 5797 5798 5798 5798 5797 5797 5797 5796 5796 5796 5795 5794 5792 5791 5789 5788 5786 5784 5782 5780 5778 5775 5773 5770 5767 5764 5761 5758 5755 5752 5748 5745 5741 5737
5783 5783 5784 5785 5786 5787 5788 5788 5788 5789 5790 5790 5790 5789 5789 5789 5788 5788 5788 5787 5786 5785 5783 5782 5780 5778 5776 5774 5772 5770 5767 5765 5762 5759 5756 5753 5750 5747 5743 5739 5736 5732 5728
5774 5775 5775 5776 5777 5778 5779 5780 5780 5781 5781 5781 5781 5781 5781 5781 5780 5780 5779 5779 5778 5777 5775 5773 5772 5770 5768 5766 5764 5761 5759 5756 5753 5751 5748 5745 5741 5738 5734 5730 5726 5722 5719
5765 5766 5767 5768 5769 5770 5771 5771 5772 5772 5773 5773 5773 5773 5773 5772 5772 5771 5770 5770 5769 5768 5766 5765 5763 5761 5759 5757 5755 5753 5750 5747 5744 5741 5739 5735 5732 5728 5725 5721 5717 5713 5709
5756 5757 5758 5759 5759 5761 5762 5763 5763 5763 5764 5764 5764 5764 5764 5763 5763 5762 5761 5761 5760 5759 5757 5756 5754 5752 5750 5748 5745 5743 5741 5737 5735 5732 5729 5726 5722 5719 5715 5711 5707 5704 5700
5747 5748 5749 5750 5750 5752 5753 5753 5754 5754 5754 5754 5754 5755 5755 5754 5754 5753 5752 5751 5750 5749 5747 5746 5744 5742 5739 5737 5735 5733 5730 5728 5725 5722 5719 5716 5713 5709 5705 5702 5698 5694 5690
5738 5738 5739 5740 5741 5742 5743 5744 5744 5745 5745 5745 5745 5745 5745 5746 5745 5744 5743 5741 5740 5739 5737 5735 5733 5731 5729 5727 5724 5722 5720 5717 5714 5711 5709 5706 5702 5699 5695 5692 5688 5684 5680
5728 5729 5729 5730 5731 5732 5733 5733 5734 5734 5735 5735 5734 5735 5735 5735 5736 5735 5733 5731 5730 5728 5727 5725 5723 5721 5719 5716 5714 5711 5709 5706 5704 5701 5698 5695 5692 5689 5685 5682 5678 5674 5670
5718 5719 5719 5720 5721 5722 5723 5723 5724 5724 5725 5725 5725 5724 5724 5724 5724 5724 5724 5721 5719 5717 5716 5714 5712 5710 5708 5705 5703 5701 5698 5695 5693 5690 5687 5684 5682 5678 5675 5671 5668 5664 5660
5707 5708 5709 5709 5710 5711 5712 5713 5713 5714 5715 5715 5715 5715 5714 5713 5712 5712 5712 5711 5709 5706 5704 5703 5701 5699 5697 5695 5692 5690 5688 5685 5682 5679 5676 5674 5671 5668 5665 5661 5657 5653 5650
5697 5697 5698 5699 5700 5701 5702 5702 5703 5704 5704 5704 5704 5704 5703 5703 5702 5700 5700 5699 5697 5696 5693 5691 5690 5688 5686 5684 5682 5680 5677 5674 5671 5668 5666 5663 5660 5657 5654 5650 5647 5643 5639
5686 5686 5687 5688 5689 5690 5690 5691 5692 5692 5693 5693 5693 5693 5692 5691 5690 5689 5687 5686 5685 5684 5682 5681 5679 5677 5675 5673 5671 5668 5665 5663 5660 5657 5655 5652 5649 5646 5643 5639 5635 5631 5627
5674 5675 5675 5676 5677 5678 5679 5680 5681 5681 5682 5682 5682 5682 5681 5680 5678 5677 5675 5674 5673 5672 5671 5670 5668 5666 5664 5662 5660 5657 5655 5652 5649 5647 5644 5641 5638 5635 5631 5628 5624 5620 5616
5662 5663 5664 5665 5665 5666 5667 5668 5669 5670 5670 5670 5670 5670 5670 5669 5667 5665 5663 5662 5661 5659 5660 5659 5657 5656 5654 5651 5649 5646 5644 5641 5639 5636 5633 5630 5627 5624 5620 5616 5613 5609 5605
5651 5652 5652 5653 5654 5654 5655 5656 5657 5658 5658 5658 5658 5658 5658 5657 5655 5654 5653 5651 5650 5648 5648 5648 5647 5645 5643 5641 5639 5636 5634 5631 5629 5626 5623 5620 5616 5613 5609 5605 5601 5598 5594
5639 5640 5641 5641 5642 5643 5643 5644 5645 5645 5646 5646 5645 5645 5645 5644 5644 5643 5642 5641 5640 5638 5637 5637 5636 5635 5633 5631 5628 5626 5624 5621 5618 5616 5613 5609 5605 5601 5598 5594 5590 5586 5582
5627 5628 5629 5630 5630 5631 5632 5632 5633 5633 5633 5633 5633 5633 5633 5633 5633 5632 5631 5630 5629 5628 5627 5627 5626 5625 5623 5621 5619 5616 5614 5612 5609 5605 5602 5598 5595 5591 5587 5583 5579 5575 5571
5615 5616 5616 5618 5619 5619 5620 5621 5621 5621 5621 5621 5621 5621 5621 5621 5621 5621 5620 5619 5619 5618 5618 5617 5616 5615 5613 5611 5610 5607 5604 5602 5598 5595 5592 5588 5584 5580 5576 5573 5569 5565 5561
5603 5604 5604 5606 5607 5607 5608 5609 5609 5609 5610 5610 5609 5609 5609 5609 5610 5610 5610 5609 5609 5608 5608 5607 5606 5605 5604 5602 5600 5598 5595 5592 5589 5586 5582 5578 5575 5571 5567 5563 5560 5556 5551
5591 5592 5594 5595 5595 5596 5596 5597 5598 5598 5599 5599 5598 5598 5598 5598 5598 5599 5599 5599 5599 5599 5598 5598 5597 5596 5595 5593 5591 5589 5586 5583 5580 5577 5573 5570 5566 5562 5558 5554 5550 5546 5542
5580 5582 5583 5583 5584 5584 5585 5586 5587 5587 5588 5588 5588 5588 5588 5588 5588 5588 5589 5589 5589 5589 5589 5588 5588 5587 5586 5584 5582 5579 5577 5575 5573 5569 5565 5562 5557 5554 5550 5546 5543 5539 5535
5570 5571 5571 5572 5573 5573 5574 5575 5576 5577 5577 5577 5578 5578 5578 5578 5578 5579 5579 5579 5580 5580 5580 5579 5578 5578 5577 5576 5573 5571 5568 5565 5563 5560 5557 5554 5550 5546 5543 5539 5535 5532 5528
5559 5560 5561 5561 5562 5563 5564 5565 5565 5566 5566 5567 5568 5568 5568 5568 5569 5569 5570 5570 5570 5571 5570 5570 5569 5568 5567 5566 5564 5563 5560 5558 5555 5552 5549 5547 5543 5540 5536 5533 5529 5525 5522
5549 5550 5551 5552 5552 5553 5554 5555 5555 5555 5556 5557 5558 5558 5558 5559 5560 5560 5561 5561 5561 5561 5561 5560 5560 5559 5558 5557 5555 5554 5552 5550 5548 5546 5543 5540 5537 5534 5531 5527 5524 5520 5516
5540 5541 5542 5543 5543 5544 5544 5545 5545 5546 5546 5548 5548 5549 5549 5550 5550 5550 5551 5551 5552 5552 5552 5551 5551 5550 5549 5548 5547 5546 5544 5543 5541 5539 5537 5534 5531 5528 5526 5522 5519 5515 5512